Location: Gälforsberget
(66.6500°N, 22.4167°E)
Time: 19:54:48
(UTC+00:00)

NOSS 3-4 (C) - Pass Details

Date: 11 April 2026
Orbit: 773 x 1438 km, 63.4° (Epoch: 26 December)

Event Time Altitude Azimuth Distance (km) Brightness Sun altitude
Exits shadow 20:23:46 11° 177° (S) 2,362 5.0 -11.3°
Maximum altitude 20:27:56 24° 126° (SE) 1,721 4.3 -11.5°
Drops below altitude 10° 20:32:44 10° 75° (ENE) 2,684 5.7 -11.8°
Sets 20:35:55 0° 63° (ENE) 3,748 6.5 -11.9°
